File downld02.txt from Feet First Farm

                  Temp     Hi    Low   Out    Dew  Wind  Wind   Wind    Hi    Hi   Wind   Heat    THW                Rain    Heat    Cool    In     In    In     In   Wind  Wind    ISS   Arc.
  Date    Time     Out   Temp   Temp   Hum    Pt. Speed   Dir    Run Speed   Dir  Chill  Index  Index   Bar    Rain  Rate    D-D     D-D    Temp   Hum    Dew   Heat  Samp   Tx   Recept  Int.
------------------------------------------------------------------------------------------------------------------------------------------------------------------------------------------------
 5/05/26 12:30a   55.0   55.7   55.0    65   43.4   6.0   SSE   3.00  11.0   SSW   53.6   53.9   52.5  29.823  0.00  0.00   0.208   0.000   65.7    45   43.8   63.7   645    4    100.0   30 
 5/05/26  1:00a   54.1   55.0   54.1    67   43.4   5.0   SSE   2.50  11.0    SE   53.0   53.2   52.1  29.823  0.00  0.00   0.227   0.000   65.6    45   43.7   63.6   645    4    100.0   30 
 5/05/26  1:30a   53.5   54.0   53.5    68   43.2   5.0   SSE   2.50  10.0   SSE   52.3   52.7   51.5  29.816  0.00  0.00   0.240   0.000   65.4    45   43.5   63.3   652    4    100.0   30 
 5/05/26  2:00a   53.3   53.5   53.2    69   43.4   4.0   SSE   2.00  10.0   SSE   52.7   52.5   51.9  29.812  0.00  0.00   0.244   0.000   65.1    45   43.2   63.0   647    4    100.0   30 
 5/05/26  2:30a   53.4   53.5   53.2    68   43.1   4.0   SSE   2.00  12.0     S   52.8   52.6   52.0  29.807  0.00  0.00   0.242   0.000   64.9    45   43.0   62.8   644    4    100.0   30 
 5/05/26  3:00a   52.6   53.5   52.5    70   43.1   3.0   SSE   1.50   8.0   SSE   52.6   51.9   51.9  29.803  0.00  0.00   0.258   0.000   64.6    45   42.8   62.5   646    4    100.0   30 
 5/05/26  3:30a   51.9   52.7   51.8    71   42.8   3.0   SSE   1.50   7.0   SSE   51.8   51.3   51.2  29.796  0.00  0.00   0.273   0.000   64.4    46   43.2   62.3   651    4    100.0   30 
 5/05/26  4:00a   51.6   52.1   51.5    73   43.2   4.0   SSE   2.00   8.0   SSE   50.7   51.1   50.2  29.797  0.00  0.00   0.279   0.000   64.1    46   42.9   62.0   646    4    100.0   30 
 5/05/26  4:30a   51.7   51.9   51.5    73   43.3   3.0   SSE   1.50   7.0     S   51.6   51.2   51.1  29.803  0.00  0.00   0.277   0.000   63.9    46   42.7   61.8   647    4    100.0   30 
 5/05/26  5:00a   49.9   51.7   49.9    77   43.0   2.0   SSE   1.00   6.0     S   49.9   49.8   49.8  29.794  0.00  0.00   0.315   0.000   63.6    46   42.4   61.4   648    4    100.0   30 
 5/05/26  5:30a   48.8   50.0   48.8    80   42.9   1.0   SSE   0.50   4.0   SSE   48.8   48.7   48.7  29.791  0.00  0.00   0.338   0.000   63.4    46   42.2   61.2   644    4    100.0   30 
 5/05/26  6:00a   50.2   50.4   48.8    78   43.6   3.0   SSE   1.50   6.0     S   49.9   50.1   49.8  29.792  0.00  0.00   0.308   0.000   63.1    46   42.0   60.9   652    4    100.0   30 
 5/05/26  6:30a   49.9   50.1   49.5    79   43.6   2.0   SSE   1.00   6.0   SSE   49.9   49.9   49.9  29.785  0.00  0.00   0.315   0.000   62.8    46   41.7   60.6   646    4    100.0   30 
 5/05/26  7:00a   51.6   51.6   49.9    77   44.6   4.0     S   2.00   9.0   SSE   50.7   51.3   50.4  29.796  0.00  0.00   0.279   0.000   62.6    46   41.5   60.4   643    4    100.0   30 
 5/05/26  7:30a   53.9   53.9   51.6    76   46.5   5.0     S   2.50   9.0   SSE   52.8   53.4   52.3  29.812  0.00  0.00   0.231   0.000   62.4    46   41.3   60.2   647    4    100.0   30 
 5/05/26  8:00a   53.8   54.3   53.8    77   46.8   3.0   SSW   1.50   9.0   SSE   53.8   53.3   53.3  29.804  0.00  0.00   0.233   0.000   62.3    46   41.2   60.1   647    4    100.0   30 
 5/05/26  8:30a   56.1   56.1   53.7    74   47.9   5.0     S   2.50  10.0     S   55.4   55.4   54.7  29.801  0.00  0.00   0.185   0.000   62.1    46   41.1   59.9   642    4    100.0   30 
 5/05/26  9:00a   59.2   59.2   56.1    67   48.2   7.0     S   3.50  14.0   SSW   58.2   58.2   57.2  29.799  0.00  0.00   0.121   0.000   62.0    46   41.0   59.8   640    4    100.0   30 
 5/05/26  9:30a   61.7   61.7   59.2    64   49.4   7.0     S   3.50  14.0   SSE   61.3   60.7   60.3  29.800  0.00  0.00   0.069   0.000   61.9    46   40.9   59.7   642    4    100.0   30 
 5/05/26 10:00a   63.8   63.8   61.7    61   50.1   7.0   SSW   3.50  13.0     S   63.8   62.8   62.8  29.796  0.00  0.00   0.025   0.000   61.9    47   41.4   59.7   639    4    100.0   30 
 5/05/26 10:30a   66.6   66.6   63.8    59   51.8   7.0     S   3.50  13.0    SE   66.6   65.8   65.8  29.787  0.00  0.00   0.000   0.033   62.0    46   41.0   59.8   647    4    100.0   30 
 5/05/26 11:00a   68.0   68.0   66.5    57   52.2   5.0   SSE   2.50  10.0    SW   68.0   67.3   67.3  29.779  0.00  0.00   0.000   0.063   62.1    46   41.1   59.9   648    4    100.0   30 
 5/05/26 11:30a   72.0   72.0   67.9    51   52.9   8.0   SSW   4.00  16.0   SSE   71.5   71.2   70.7  29.765  0.00  0.00   0.000   0.146   62.3    46   41.2   60.1   648    4    100.0   30 
 5/05/26 12:00p   72.7   72.7   71.5    49   52.4   8.0     S   4.00  16.0    SW   72.2   72.0   71.5  29.751  0.00  0.00   0.000   0.160   62.5    46   41.4   60.3   645    4    100.0   30 
 5/05/26 12:30p   75.4   75.6   72.7    48   54.3   8.0     S   4.00  16.0     S   74.9   75.1   74.6  29.734  0.00  0.00   0.000   0.217   62.9    46   41.8   60.7   644    4    100.0   30 
 5/05/26  1:00p   76.5   76.5   75.4    43   52.3   9.0     S   4.50  18.0     S   75.3   75.7   74.5  29.709  0.00  0.00   0.000   0.240   63.3    46   42.2   61.1   651    4    100.0   30 
 5/05/26  1:30p   77.7   77.7   76.5    42   52.8  11.0     S   5.50  26.0     S   75.5   76.7   74.5  29.709  0.00  0.00   0.000   0.265   63.8    46   42.6   61.6   646    4    100.0   30 
 5/05/26  2:00p   78.5   78.7   77.7    43   54.1  11.0     S   5.50  25.0   SSE   76.4   77.6   75.5  29.696  0.00  0.00   0.000   0.281   64.3    46   43.1   62.2   641    4    100.0   30 
 5/05/26  2:30p   78.3   78.6   77.4    43   54.0  11.0     S   5.50  25.0     S   76.2   77.4   75.3  29.678  0.00  0.00   0.000   0.277   64.8    47   44.1   62.8   649    4    100.0   30 
 5/05/26  3:00p   77.0   78.7   77.0    42   52.1  13.0     S   6.50  24.0   SSE   74.1   76.1   73.2  29.671  0.00  0.00   0.000   0.250   65.3    47   44.5   63.4   645    4    100.0   30 
 5/05/26  3:30p   77.9   78.3   76.9    41   52.3  12.0     S   6.00  26.0   SSW   75.4   76.8   74.3  29.660  0.00  0.00   0.000   0.269   65.8    47   45.0   63.9   649    4    100.0   30 
 5/05/26  4:00p   78.7   78.8   77.8    37   50.2  11.0   SSW   5.50  27.0     S   76.6   77.3   75.2  29.654  0.00  0.00   0.000   0.285   66.3    47   45.5   64.5   649    4    100.0   30 
 5/05/26  4:30p   78.1   79.1   78.1    38   50.4  10.0   SSW   5.00  23.0    SW   76.3   76.7   74.9  29.642  0.00  0.00   0.000   0.273   66.7    47   45.8   64.9   652    4    100.0   30 
 5/05/26  5:00p   78.6   78.7   77.8    36   49.4  12.0   SSW   6.00  24.0    SW   76.2   77.1   74.7  29.649  0.00  0.00   0.000   0.283   67.3    46   45.8   65.5   652    4    100.0   30 
 5/05/26  5:30p   77.5   78.7   77.4    35   47.7  10.0   SSW   5.00  22.0    SE   75.7   75.9   74.1  29.658  0.00  0.00   0.000   0.260   70.0    40   44.6   67.5   651    4    100.0   30 
 5/05/26  6:00p   77.5   77.8   77.2    34   46.9   9.0   SSW   4.50  24.0     S   76.3   75.9   74.7  29.666  0.00  0.00   0.000   0.260   70.8    40   45.3   68.5   647    4    100.0   30 
 5/05/26  6:30p   75.9   77.6   75.9    46   53.6   8.0   SSW   4.00  22.0    SW   75.4   75.4   74.9  29.709  0.00  0.00   0.000   0.227   70.4    41   45.6   68.1   650    4    100.0   30 
 5/05/26  7:00p   68.4   75.9   68.3    63   55.3   2.0     N   1.00  11.0    NW   68.4   68.2   68.2  29.740  0.00  0.00   0.000   0.071   70.2    42   46.0   67.9   651    4    100.0   30 
 5/05/26  7:30p   66.8   68.3   66.4    66   55.1   2.0   WNW   1.00  13.0   NNW   66.8   66.6   66.6  29.746  0.00  0.00   0.000   0.038   70.1    43   46.6   67.9   651    4    100.0   30 
 5/05/26  8:00p   65.5   66.8   65.5    69   55.1   1.0     E   0.50   3.0   ENE   65.5   65.2   65.2  29.763  0.00  0.00   0.000   0.010   70.1    44   47.2   67.9   650    4    100.0   30 
 5/05/26  8:30p   65.3   65.5   65.0    69   54.9   2.0   SSE   1.00   7.0   SSE   65.3   65.0   65.0  29.770  0.00  0.00   0.000   0.006   70.0    44   47.1   67.8   648    4    100.0   30 
 5/05/26  9:00p   65.0   65.7   65.0    70   55.0   2.0   SSE   1.00   5.0   SSE   65.0   64.7   64.7  29.764  0.00  0.00   0.000   0.000   69.9    45   47.6   67.8   646    4    100.0   30 
 5/05/26  9:30p   65.3   65.3   64.8    70   55.3   2.0    SE   1.00   5.0    SE   65.3   65.1   65.1  29.774  0.00  0.00   0.000   0.006   69.9    45   47.6   67.8   645    4    100.0   30 
 5/05/26 10:00p   64.9   65.6   64.7    72   55.7   2.0   SSE   1.00   7.0     W   64.9   64.7   64.7  29.797  0.00  0.00   0.002   0.000   69.8    45   47.5   67.7   649    4    100.0   30 
 5/05/26 10:30p   64.4   64.9   64.3    72   55.2   5.0     S   2.50   9.0     S   64.4   64.2   64.2  29.793  0.00  0.00   0.012   0.000   69.7    46   48.0   67.7   649    4    100.0   30 
 5/05/26 11:00p   64.0   64.4   64.0    71   54.4   4.0   SSE   2.00   8.0     S   64.0   63.7   63.7  29.795  0.00  0.00   0.021   0.000   69.6    46   47.9   67.6   645    4    100.0   30 
 5/05/26 11:30p   63.4   64.0   63.4    71   53.8   4.0     S   2.00   8.0   SSE   63.4   63.0   63.0  29.789  0.00  0.00   0.033   0.000   69.6    46   47.9   67.6   643    4    100.0   30 
 5/06/26 12:00a   62.6   63.4   62.6    71   53.1   5.0     S   2.50  12.0   SSE   62.6   62.1   62.1  29.796  0.00  0.00   0.050   0.000   69.4    46   47.7   67.5   649    4    100.0   30 
 5/06/26 12:30a   62.1   62.7   62.1    71   52.6   6.0     S   3.00  13.0   SSE   62.1   61.5   61.5  29.795  0.00  0.00   0.060   0.000   69.4    46   47.7   67.5   646    4    100.0   30 
 5/06/26  1:00a   61.1   62.2   61.1    72   52.0   5.0     S   2.50  11.0     S   61.1   60.5   60.5  29.796  0.00  0.00   0.081   0.000   69.3    46   47.6   67.4   646    4    100.0   30 
 5/06/26  1:30a   60.0   61.2   60.0    73   51.3   4.0     S   2.00  10.0    SW   60.0   59.4   59.4  29.791  0.00  0.00   0.104   0.000   69.1    47   48.0   67.3   648    4    100.0   30 
 5/06/26  2:00a   58.9   60.0   58.9    75   51.0   4.0     S   2.00   7.0   SSW   58.9   58.3   58.3  29.792  0.00  0.00   0.127   0.000   68.9    47   47.8   67.1   648    4    100.0   30 
 5/06/26  2:30a   58.0   59.0   58.0    77   50.8   4.0   SSE   2.00   8.0   SSE   58.0   57.5   57.5  29.788  0.00  0.00   0.146   0.000   68.9    47   47.8   67.1   648    4    100.0   30 
 5/06/26  3:00a   57.7   58.2   57.7    78   50.9   4.0   SSE   2.00   9.0     S   57.7   57.3   57.3  29.799  0.00  0.00   0.152   0.000   68.7    47   47.6   66.9   647    4    100.0   30 
 5/06/26  3:30a   56.8   57.8   56.8    80   50.7   3.0   SSE   1.50   7.0     S   56.8   56.5   56.5  29.799  0.00  0.00   0.171   0.000   68.6    47   47.6   66.9   646    4    100.0   30 
 5/06/26  4:00a   56.8   56.9   56.6    81   51.0   3.0   SSE   1.50   7.0   SSE   56.8   56.5   56.5  29.797  0.00  0.00   0.171   0.000   68.4    47   47.4   66.7   649    4    100.0   30 
 5/06/26  4:30a   56.6   56.9   56.5    82   51.2   3.0   SSE   1.50   6.0   SSE   56.6   56.3   56.3  29.791  0.00  0.00   0.175   0.000   68.2    47   47.2   66.5   645    4    100.0   30 
 5/06/26  5:00a   56.6   56.8   56.5    82   51.2   3.0   SSE   1.50   7.0     S   56.6   56.3   56.3  29.778  0.00  0.00   0.175   0.000   68.1    47   47.1   66.4   648    4    100.0   30 
 5/06/26  5:30a   55.3   56.6   55.3    84   50.5   2.0     S   1.00   5.0   SSE   55.3   55.1   55.1  29.781  0.00  0.00   0.202   0.000   67.9    47   46.9   66.3   640    4    100.0   30 
 5/06/26  6:00a   55.2   55.3   55.0    86   51.1   2.0   SSE   1.00   6.0   SSE   55.2   55.1   55.1  29.784  0.00  0.00   0.204   0.000   67.7    47   46.7   66.0   643    4    100.0   30 
 5/06/26  6:30a   55.9   55.9   55.2    87   52.1   3.0   SSE   1.50   9.0   SSE   55.9   55.8   55.8  29.785  0.00  0.00   0.190   0.000   67.5    47   46.6   65.8   650    4    100.0   30 
 5/06/26  7:00a   56.2   56.2   55.8    87   52.4   5.0   SSE   2.50  11.0   SSE   55.5   56.1   55.4  29.787  0.00  0.00   0.183   0.000   67.3    48   46.9   65.7   652    4    100.0   30 
 5/06/26  7:30a   56.8   56.9   56.1    87   53.0   6.0   SSE   3.00  14.0     S   55.8   56.7   55.7  29.786  0.00  0.00   0.171   0.000   67.1    48   46.7   65.4   647    4    100.0   30 
 5/06/26  8:00a   57.3   57.3   56.8    87   53.5   7.0   SSE   3.50  14.0     S   56.0   57.2   55.9  29.772  0.00  0.00   0.160   0.000   67.0    48   46.7   65.3   650    4    100.0   30 
 5/06/26  8:30a   57.5   57.5   57.2    87   53.7   7.0     S   3.50  15.0   SSE   56.2   57.5   56.2  29.785  0.00  0.00   0.156   0.000   66.9    48   46.6   65.2   647    4    100.0   30 
 5/06/26  9:00a   57.8   57.9   57.5    87   54.0   5.0     S   2.50  11.0     S   57.4   57.8   57.4  29.781  0.00  0.00   0.150   0.000   66.7    48   46.4   65.0   649    4    100.0   30 
 5/06/26  9:30a   58.6   58.6   57.8    87   54.7   4.0     S   2.00  10.0   SSE   58.6   58.6   58.6  29.765  0.00  0.00   0.133   0.000   67.4    49   47.6   65.9   643    4    100.0   30 
 5/06/26 10:00a   60.5   60.5   58.6    84   55.6   5.0     S   2.50  10.0   SSE   60.5   60.5   60.5  29.763  0.00  0.00   0.094   0.000   68.9    49   48.9   67.3   650    4    100.0   30